Voltar ao catálogo

STARLINK-30578

AtivoComunicaçõesVLEO
NORAD 58093·PAYLOAD·🇺🇸 United States

Lançado Oct 18, 2023 de Cape Canaveral Space Force Station

Loading…

Próximas Passagens (próximas 24 horas)

TLE

AtualizadoSource: CelesTrak SupGP

Época: Sep 15, 2026, 02:29 UTC

1 58093C 23160U   26258.10395833  .00014702  00000+0  53236-3 0  2585
2 58093  42.9994  88.0339 0001566 273.9890 164.3812 15.27579495    11

Acompanhe STARLINK-30578 em tempo real com AllMySat

Download on the App Store